Location: City of Moscow
(46.7306°N, 116.9989°W)
Time: 16:45:38
(UTC+00:00)

ISS - Visible Passes

Search period start: 14 February 2026 00:00
Search period end: 24 February 2026 00:00
Orbit: 413 x 428 km, 51.6° (Epoch: 13 February)

Date Brightness Start Highest point End Pass type
(mag) Time Alt. Az. Time Alt. Az. Time Alt. Az.
14 Feb -1.7 13:06:08 15° S 13:08:07 24° SE 13:10:55 10° E visible
15 Feb -1.1 12:21:26 16° SE 12:21:26 16° SE 12:23:23 10° E visible
15 Feb -3.8 13:54:27 11° WSW 13:57:40 88° SSE 14:01:01 10° ENE visible
16 Feb -3.4 13:09:35 38° SSW 13:10:35 60° SSE 13:13:54 10° ENE visible
17 Feb -1.9 12:24:34 30° ESE 12:24:34 30° ESE 12:26:43 10° ENE visible
17 Feb -3.4 13:57:34 13° W 14:00:22 49° NNW 14:03:38 10° ENE visible
18 Feb -3.7 13:12:26 47° W 13:13:12 65° NNW 13:16:32 10° ENE visible
19 Feb -2.3 12:27:14 37° ENE 12:27:14 37° ENE 12:29:23 10° ENE visible
19 Feb -2.8 14:00:13 11° WNW 14:03:08 35° N 14:06:15 10° ENE visible
20 Feb -0.3 11:41:58 12° ENE 11:41:58 12° ENE 11:42:13 10° ENE visible
20 Feb -3.0 13:14:56 32° NW 13:15:52 40° NNW 13:19:04 10° ENE visible
21 Feb -2.4 12:29:36 35° NNE 12:29:36 35° NNE 12:31:53 10° ENE visible
21 Feb -2.6 14:02:47 10° WNW 14:05:53 34° N 14:08:59 10° ENE visible
22 Feb -0.5 11:44:14 13° ENE 11:44:14 13° ENE 11:44:43 10° ENE visible
22 Feb -2.6 13:17:13 24° NW 13:18:35 34° N 13:21:40 10° ENE visible
23 Feb -2.4 12:31:49 33° NNE 12:31:49 33° NNE 12:34:23 10° ENE visible
23 Feb -2.9 14:05:20 10° WNW 14:08:33 42° NNE 14:11:46 10° E visible
